Zurück zum Katalog

KUIPER-00534

AktivKommunikationVLEO
NORAD 69606·PAYLOAD·🇺🇸 United States

Gestartet Jun 17, 2026 von Guiana Space Centre

Loading…

Nächste Überflüge (nächste 24 Stunden)

TLE

AktuellSource: CelesTrak SupGP

Epoche: Sep 14, 2026, 21:40 UTC

1 69606C 26140Q   26257.90280093 -.00040832  00000+0 -13404-2 0  2572
2 69606  51.8808 325.7356 0013697 115.5247 275.2257 15.30953201    11

Verfolge KUIPER-00534 in Echtzeit mit AllMySat

Download on the App Store